sat.trackr.live / text

‹ back to catalog

STARLINK-30305

NORAD 57775 · 2023-134E

PAYLOAD ACTIVE UNKNOWN

§ Identity

Operator
Country
US
Launch date
2023-09-04
Launch site
AFETR
Launch vehicle
Mass (kg)
RCS (m²)

Purposes: comms

External: N2YO · Heavens-Above · Gunter

§ Orbital elements

Epoch: 2026-05-24T23:53:10.817376Z

Period
94.27 min
Inclination
43.0031°
Eccentricity
0.0000982
Mean motion
15.27562953 rev/d
Perigee alt
482.4 km
Apogee alt
483.8 km
Semi-major
6,861.2 km
B*
1.0719e-4
RAAN
123.8224°
Arg perigee
293.9169°
Mean anomaly
66.1580°
Rev number
15,117

§ Raw data

STARLINK-303051 57775U 23134E   26144.99526409  .00002687  00000+0  10719-3 0  99982 57775  43.0031 123.8224 0000982 293.9169  66.1580 15.27562953151170

JSON: /api/v1/satellites/57775 · /tle

For live sub-satellite position, see the globe view (requires WebGL).

§ Visibility from observer

Set your observer location to see the next 7 days of passes ≥ 10°. The values pass through the URL so the page stays shareable.

No JS? Fill the form by hand. The geolocation button needs JavaScript.